Thunderstorms From: 26-05-2018 21:24 Until: 27-05-2018 15:00 warning for: Thunderstorms Level: Yellow info button

Although rather usual in this region, locally or potentially dangerous phenomena are expected. (such as local winds, summer thunderstorms, rising streams or high waves) Be aware and pay attention to the latest weather updates, especially if you carry out activities exposed to weather or close to a stream or shoreline. 


Meteo18 Weather Cam more information Meteo18 Weather Cam


warning for Thunderstorms more information blitzortung!


Rain radar more information rain snow radar


Visit our other weather sites:

Template documentation
and downloads

And another site



Weather Underground History page Text

Daily Summary for August 15, 2016 Units:  Metric    English   Both
« Previous Day
Next Day »
Daily Weekly Monthly Yearly Custom
  High: Low: Average:
Temperature: -17.8 °C -8.2 °C -4.1 °C
Dew Point: -17.8 °C -10.9 °C -9.9 °C
Humidity: Humidity % 38 % 53 %
Wind Speed: 0 km/h 0 km/h 11.3 km/h
Wind Gust: 0 km/h - -
Wind:- - SSE
Pressure: 0 hPa 34371.3 hPa -
Precipitation: 0 mm    
Historical Graphs
 
 
Tabular Data for August 15, 2016
Time Temperature Dew Point Pressure Wind Wind Speed Wind Gust Humidity Rainfall Rate (Hourly)
-17.8 °C -17.8 °C 0 hPa Calm     Humidity % 0 mm
00:02 -5.7 °C -10.8 °C 34544 hPa NW 7.7 km/h 18.2 km/h 56 % 0 mm
00:12 -5.8 °C -10.9 °C 34544 hPa NNW 5.1 km/h 18.2 km/h 56 % 0 mm
00:17 -5.8 °C -10.8 °C 34544 hPa Calm   18.2 km/h 57 % 0 mm
00:22 -5.9 °C -10.8 °C 34544 hPa NNW 5.1 km/h 20.8 km/h 57 % 0 mm
00:32 -5.9 °C -10.7 °C 34533.8 hPa NNW 7.7 km/h 20.8 km/h 58 % 0 mm
00:42 -6 °C -10.6 °C 34544 hPa North 2.6 km/h 20.8 km/h 59 % 0 mm
00:52 -6 °C -10.6 °C 34544 hPa NNE 5.1 km/h 18.2 km/h 59 % 0 mm
01:02 -6.2 °C -10.5 °C 34544 hPa NNE 2.6 km/h 20.8 km/h 61 % 0 mm
01:17 -6.3 °C -10.4 °C 34544 hPa NNW 7.7 km/h 15.6 km/h 62 % 0 mm
01:22 -6.3 °C -10.4 °C 34544 hPa Calm   15.6 km/h 62 % 0 mm
01:32 -6.3 °C -10.5 °C 34544 hPa NNW 7.7 km/h 15.6 km/h 62 % 0 mm
01:37 -6.3 °C -10.5 °C 34544 hPa North 15.6 km/h 18.2 km/h 62 % 0 mm
01:42 -6.3 °C -10.5 °C 34544 hPa North 5.1 km/h 18.2 km/h 62 % 0 mm
01:52 -6.4 °C -10.6 °C 34544 hPa North 12.9 km/h 15.6 km/h 62 % 0 mm
02:02 -6.5 °C -10.7 °C 34544 hPa North 7.7 km/h 20.8 km/h 62 % 0 mm
02:12 -6.6 °C -10.6 °C 34544 hPa North 10.3 km/h 20.8 km/h 63 % 0 mm
02:17 -6.6 °C -10.6 °C 34544 hPa WNW 10.3 km/h 20.8 km/h 63 % 0 mm
02:22 -6.6 °C -10.4 °C 34533.8 hPa North 15.6 km/h 20.8 km/h 64 % 0 mm
02:42 -6.7 °C -10.5 °C 34533.8 hPa NNW 10.3 km/h 23.3 km/h 65 % 0 mm
02:47 -6.8 °C -10.6 °C 34533.8 hPa East 5.1 km/h 23.3 km/h 65 % 0 mm
02:52 -6.8 °C -10.4 °C 34533.8 hPa NNE 10.3 km/h 23.3 km/h 66 % 0 mm
02:57 -6.8 °C -10.4 °C 34533.8 hPa NW 7.7 km/h 23.3 km/h 66 % 0 mm
03:02 -6.9 °C -10.5 °C 34533.8 hPa North 5.1 km/h 20.8 km/h 66 % 0 mm
03:12 -6.9 °C -10.5 °C 34533.8 hPa NNW 7.7 km/h 23.3 km/h 66 % 0 mm
03:17 -6.9 °C -10.4 °C 34533.8 hPa NNE 10.3 km/h 23.3 km/h 67 % 0 mm
03:22 -6.9 °C -10.4 °C 34533.8 hPa NNW 5.1 km/h 20.8 km/h 67 % 0 mm
03:32 -7.1 °C -10.6 °C 34533.8 hPa NNW 18.2 km/h 20.8 km/h 67 % 0 mm
03:42 -7.1 °C -10.5 °C 34533.8 hPa North 20.8 km/h 23.3 km/h 68 % 0 mm
03:52 -7.2 °C -10.4 °C 34520.3 hPa NE 7.7 km/h 20.8 km/h 69 % 0 mm
03:57 -7.2 °C -10.4 °C 34520.3 hPa North 7.7 km/h 23.3 km/h 69 % 0 mm
04:02 -7.2 °C -10.4 °C 34520.3 hPa NNE 5.1 km/h 25.9 km/h 69 % 0 mm
04:07 -7.2 °C -10.4 °C 34520.3 hPa NNE 2.6 km/h 25.9 km/h 69 % 0 mm
04:12 -7.2 °C -10.4 °C 34520.3 hPa NNE 2.6 km/h 25.9 km/h 69 % 0 mm
04:32 -7.3 °C -10.5 °C 34510.1 hPa NNW 10.3 km/h 15.6 km/h 69 % 0 mm
04:37 -7.3 °C -10.4 °C 34510.1 hPa North 12.9 km/h 15.6 km/h 70 % 0 mm
04:42 -7.3 °C -10.4 °C 34510.1 hPa NNW 7.7 km/h 20.8 km/h 70 % 0 mm
04:47 -7.3 °C -10.4 °C 34510.1 hPa NNW 12.9 km/h 20.8 km/h 70 % 0 mm
04:52 -7.3 °C -10.4 °C 34510.1 hPa NE 10.3 km/h 20.8 km/h 70 % 0 mm
05:02 -7.3 °C -10.4 °C 34510.1 hPa North 5.1 km/h 23.3 km/h 70 % 0 mm
05:12 -7.4 °C -10.6 °C 34496.6 hPa North 7.7 km/h 20.8 km/h 70 % 0 mm
05:17 -7.6 °C -10.6 °C 34496.6 hPa NNW 7.7 km/h 20.8 km/h 71 % 0 mm
05:22 -7.6 °C -10.4 °C 34496.6 hPa North 10.3 km/h 20.8 km/h 72 % 0 mm
05:32 -7.7 °C -10.4 °C 34496.6 hPa North 10.3 km/h 18.2 km/h 73 % 0 mm
05:37 -7.7 °C -10.4 °C 34496.6 hPa NNW 10.3 km/h 18.2 km/h 73 % 0 mm
05:42 -7.8 °C -10.5 °C 34496.6 hPa North 5.1 km/h 18.2 km/h 73 % 0 mm
05:57 -7.9 °C -10.5 °C 34496.6 hPa North 10.3 km/h 15.6 km/h 74 % 0 mm
06:02 -7.9 °C -10.6 °C 34496.6 hPa NNW 5.1 km/h 15.6 km/h 74 % 0 mm
06:12 -8 °C -10.5 °C 34496.6 hPa NNW 5.1 km/h 15.6 km/h 75 % 0 mm
06:17 -8.1 °C -10.4 °C 34510.1 hPa NNW 7.7 km/h 15.6 km/h 76 % 0 mm
06:22 -8.1 °C -10.5 °C 34510.1 hPa NNE 15.6 km/h 15.6 km/h 76 % 0 mm
06:32 -8.2 °C -10.4 °C 34510.1 hPa NNW 15.6 km/h 20.8 km/h 77 % 0 mm
06:42 -8.1 °C -10.5 °C 34496.6 hPa NNW 10.3 km/h 20.8 km/h 76 % 0 mm
06:52 -8.1 °C -10.4 °C 34496.6 hPa NW 7.7 km/h 25.9 km/h 76 % 0 mm
07:02 -8 °C -10.4 °C 34496.6 hPa North 7.7 km/h 23.3 km/h 76 % 0 mm
07:12 -7.8 °C -10.3 °C 34496.6 hPa NE 5.1 km/h 23.3 km/h 75 % 0 mm
07:17 -7.7 °C -10.3 °C 34496.6 hPa North 12.9 km/h 20.8 km/h 74 % 0 mm
07:22 -7.7 °C -10.3 °C 34496.6 hPa North 7.7 km/h 15.6 km/h 74 % 0 mm
07:32 -7.5 °C -10.2 °C 34496.6 hPa North 12.9 km/h 18.2 km/h 73 % 0 mm
07:42 -7.4 °C -10.3 °C 34496.6 hPa NNE 18.2 km/h 23.3 km/h 72 % 0 mm
07:47 -7.3 °C -10.2 °C 34496.6 hPa NE 10.3 km/h 25.9 km/h 72 % 0 mm
07:52 -7.3 °C -10.2 °C 34496.6 hPa NNE 15.6 km/h 25.9 km/h 72 % 0 mm
07:57 -7.2 °C -10.1 °C 34496.6 hPa NNW 7.7 km/h 23.3 km/h 72 % 0 mm
08:02 -7.2 °C -10.2 °C 34496.6 hPa NE 10.3 km/h 18.2 km/h 71 % 0 mm
08:12 -7.1 °C -10.1 °C 34496.6 hPa North 12.9 km/h 18.2 km/h 71 % 0 mm
08:22 -6.9 °C -9.9 °C 34496.6 hPa NE 7.7 km/h 25.9 km/h 71 % 0 mm
08:32 -6.7 °C -9.9 °C 34510.1 hPa North 12.9 km/h 25.9 km/h 69 % 0 mm
08:37 -6.6 °C -9.9 °C 34510.1 hPa NW 12.9 km/h 23.3 km/h 69 % 0 mm
08:42 -6.6 °C -9.9 °C 34510.1 hPa NNE 10.3 km/h 23.3 km/h 69 % 0 mm
08:47 -6.6 °C -9.8 °C 34510.1 hPa ENE 2.6 km/h 20.8 km/h 69 % 0 mm
08:57 -6.4 °C -9.8 °C 34510.1 hPa North 12.9 km/h 20.8 km/h 68 % 0 mm
09:02 -6.3 °C -9.8 °C 34496.6 hPa East 5.1 km/h 20.8 km/h 67 % 0 mm
09:12 -6.1 °C -9.8 °C 34496.6 hPa NE 7.7 km/h 20.8 km/h 66 % 0 mm
09:17 -6 °C -9.8 °C 34496.6 hPa NNE 10.3 km/h 23.3 km/h 65 % 0 mm
09:22 -5.9 °C -9.7 °C 34496.6 hPa NNW 15.6 km/h 28.5 km/h 65 % 0 mm
09:27 -5.9 °C -9.7 °C 34496.6 hPa North 15.6 km/h 28.5 km/h 65 % 0 mm
09:32 -5.8 °C -9.6 °C 34496.6 hPa NE 10.3 km/h 28.5 km/h 65 % 0 mm
09:37 -5.7 °C -9.6 °C 34496.6 hPa NE 10.3 km/h 25.9 km/h 64 % 0 mm
09:42 -5.6 °C -9.7 °C 34496.6 hPa ENE 10.3 km/h 25.9 km/h 63 % 0 mm
09:47 -5.6 °C -9.7 °C 34496.6 hPa NE 7.7 km/h 28.5 km/h 63 % 0 mm
09:52 -5.5 °C -9.7 °C 34496.6 hPa NNW 5.1 km/h 31.1 km/h 62 % 0 mm
10:02 -5.2 °C -9.5 °C 34496.6 hPa North 10.3 km/h 31.1 km/h 62 % 0 mm
10:12 -5.1 °C -9.7 °C 34496.6 hPa NE 23.3 km/h 25.9 km/h 60 % 0 mm
10:17 -5.1 °C -9.5 °C 34496.6 hPa NE 33.6 km/h 33.6 km/h 61 % 0 mm
10:22 -5.1 °C -9.7 °C 34496.6 hPa NNE 12.9 km/h 33.6 km/h 59 % 0 mm
10:27 -4.8 °C -9.7 °C 34496.6 hPa NE 20.8 km/h 33.6 km/h 58 % 0 mm
10:37 -4.8 °C -9.5 °C 34496.6 hPa NE 12.9 km/h 31.1 km/h 59 % 0 mm
10:42 -4.7 °C -9.5 °C 34496.6 hPa NE 12.9 km/h 28.5 km/h 58 % 0 mm
10:47 -4.6 °C -9.5 °C 34496.6 hPa ENE 10.3 km/h 28.5 km/h 58 % 0 mm
10:52 -4.6 °C -9.4 °C 34496.6 hPa NNW 18.2 km/h 28.5 km/h 58 % 0 mm
11:02 -4.3 °C -9.4 °C 34496.6 hPa NE 20.8 km/h 25.9 km/h 57 % 0 mm
11:07 -4.2 °C -9.3 °C 34496.6 hPa NNE 7.7 km/h 28.5 km/h 57 % 0 mm
11:12 -4.2 °C -9.4 °C 34486.4 hPa NNE 23.3 km/h 28.5 km/h 56 % 0 mm
11:17 -4.2 °C -9.3 °C 34486.4 hPa NE 25.9 km/h 28.5 km/h 57 % 0 mm
11:22 -4.1 °C -9.1 °C 34486.4 hPa NW 15.6 km/h 33.6 km/h 57 % 0 mm
11:27 -3.8 °C -9.2 °C 34486.4 hPa NNE 5.1 km/h 33.6 km/h 55 % 0 mm
11:37 -3.7 °C -9.2 °C 34486.4 hPa NE 20.8 km/h 33.6 km/h 54 % 0 mm
11:42 -3.6 °C -9.1 °C 34486.4 hPa NE 10.3 km/h 38.8 km/h 54 % 0 mm
11:52 -3.3 °C -9.1 °C 34486.4 hPa NE 15.6 km/h 31.1 km/h 53 % 0 mm
11:57 -3.3 °C -9.2 °C 34476.3 hPa NE 15.6 km/h 31.1 km/h 52 % 0 mm
12:02 -3.2 °C -9.3 °C 34476.3 hPa North 12.9 km/h 36.2 km/h 51 % 0 mm
12:07 -3.2 °C -9.3 °C 34476.3 hPa North 2.6 km/h 36.2 km/h 51 % 0 mm
12:12 -3.1 °C -9.3 °C 34476.3 hPa NW 28.5 km/h 36.2 km/h 50 % 0 mm
12:17 -3.1 °C -9.3 °C 34476.3 hPa NNW 15.6 km/h 36.2 km/h 50 % 0 mm
12:22 -2.8 °C -9.4 °C 34476.3 hPa NNE 31.1 km/h 36.2 km/h 48 % 0 mm
12:27 -2.9 °C -9.3 °C 34476.3 hPa NE 10.3 km/h 36.2 km/h 49 % 0 mm
12:32 -2.8 °C -9.7 °C 34476.3 hPa ENE 15.6 km/h 38.8 km/h 47 % 0 mm
12:37 -2.7 °C -9.6 °C 34476.3 hPa NNW 7.7 km/h 38.8 km/h 47 % 0 mm
12:42 -2.7 °C -9.5 °C 34476.3 hPa ENE 7.7 km/h 36.2 km/h 47 % 0 mm
12:47 -2.6 °C -9.6 °C 34476.3 hPa ENE 7.7 km/h 36.2 km/h 46 % 0 mm
12:52 -2.6 °C -9.6 °C 34476.3 hPa NE 10.3 km/h 36.2 km/h 46 % 0 mm
12:57 -2.4 °C -9.5 °C 34476.3 hPa NE 7.7 km/h 31.1 km/h 46 % 0 mm
13:02 -2.3 °C -9.6 °C 34476.3 hPa NE 15.6 km/h 36.2 km/h 45 % 0 mm
13:07 -2.2 °C -9.6 °C 34462.7 hPa NNE 15.6 km/h 36.2 km/h 44 % 0 mm
13:12 -2.2 °C -9.4 °C 34462.7 hPa NE 31.1 km/h 31.1 km/h 45 % 0 mm
13:17 -2.2 °C -9.7 °C 34462.7 hPa NE 15.6 km/h 36.2 km/h 44 % 0 mm
13:22 -2.1 °C -9.4 °C 34462.7 hPa North 23.3 km/h 36.2 km/h 45 % 0 mm
13:27 -1.9 °C -9.4 °C 34462.7 hPa ESE 10.3 km/h 36.2 km/h 44 % 0 mm
13:32 -2 °C -9.7 °C 34462.7 hPa NE 15.6 km/h 36.2 km/h 43 % 0 mm
13:37 -1.9 °C -9.3 °C 34462.7 hPa NNE 23.3 km/h 36.2 km/h 44 % 0 mm
13:47 -1.6 °C -9.5 °C 34452.6 hPa North 23.3 km/h 25.9 km/h 42 % 0 mm
13:52 -1.5 °C -9.6 °C 34452.6 hPa NNE 12.9 km/h 28.5 km/h 41 % 0 mm
13:57 -1.6 °C -9.7 °C 34462.7 hPa NE 7.7 km/h 33.6 km/h 41 % 0 mm
14:02 -1.7 °C -9.6 °C 34452.6 hPa NE 12.9 km/h 33.6 km/h 42 % 0 mm
14:07 -1.6 °C -9.7 °C 34452.6 hPa ENE 7.7 km/h 33.6 km/h 41 % 0 mm
14:12 -1.6 °C -9.4 °C 34452.6 hPa NNW 7.7 km/h 31.1 km/h 42 % 0 mm
14:17 -1.6 °C -9.7 °C 34452.6 hPa NNW 12.9 km/h 31.1 km/h 41 % 0 mm
14:22 -1.6 °C -9.7 °C 34452.6 hPa ENE 15.6 km/h 31.1 km/h 41 % 0 mm
14:32 -1.5 °C -9.4 °C 34452.6 hPa NNE 20.8 km/h 33.6 km/h 42 % 0 mm
14:37 -1.4 °C -9.6 °C 34442.4 hPa NW 10.3 km/h 33.6 km/h 41 % 0 mm
14:42 -1.2 °C -9.2 °C 34442.4 hPa North 15.6 km/h 33.6 km/h 42 % 0 mm
14:47 -1.3 °C -9.4 °C 34442.4 hPa NE 12.9 km/h 31.1 km/h 41 % 0 mm
14:52 -1.2 °C -9.4 °C 34442.4 hPa North 20.8 km/h 31.1 km/h 41 % 0 mm
14:57 -1.2 °C -9.6 °C 34442.4 hPa NNE 20.8 km/h 36.2 km/h 40 % 0 mm
15:02 -1.2 °C -9.3 °C 34442.4 hPa ENE 12.9 km/h 36.2 km/h 41 % 0 mm
15:07 -1.1 °C -9.3 °C 34442.4 hPa North 18.2 km/h 36.2 km/h 41 % 0 mm
15:12 -1 °C -9.2 °C 34442.4 hPa NW 7.7 km/h 33.6 km/h 41 % 0 mm
15:17 -0.9 °C -9.3 °C 34442.4 hPa NNE 12.9 km/h 33.6 km/h 40 % 0 mm
15:22 -0.9 °C -9.3 °C 34428.8 hPa North 20.8 km/h 31.1 km/h 40 % 0 mm
15:32 -1 °C -9.2 °C 34428.8 hPa ENE 10.3 km/h 33.6 km/h 41 % 0 mm
15:37 -0.8 °C -9.2 °C 34428.8 hPa NE 23.3 km/h 33.6 km/h 40 % 0 mm
15:42 -0.9 °C -9.3 °C 34428.8 hPa NW 2.6 km/h 33.6 km/h 40 % 0 mm
15:47 -0.7 °C -9.3 °C 34428.8 hPa NNE 15.6 km/h 33.6 km/h 39 % 0 mm
15:52 -0.8 °C -9.4 °C 34428.8 hPa NNW 10.3 km/h 33.6 km/h 39 % 0 mm
15:57 -0.9 °C -9.3 °C 34418.7 hPa NE 12.9 km/h 33.6 km/h 40 % 0 mm
16:02 -0.9 °C -9.3 °C 34418.7 hPa NE 23.3 km/h 33.6 km/h 40 % 0 mm
16:07 -0.8 °C -9.2 °C 34418.7 hPa North 12.9 km/h 33.6 km/h 40 % 0 mm
16:12 -0.8 °C -9.4 °C 34418.7 hPa NNE 12.9 km/h 33.6 km/h 39 % 0 mm
16:17 -0.8 °C -9.2 °C 34418.7 hPa NW 12.9 km/h 31.1 km/h 40 % 0 mm
16:22 -0.7 °C -9.3 °C 34418.7 hPa ENE 5.1 km/h 31.1 km/h 39 % 0 mm
16:27 -0.8 °C -9.4 °C 34418.7 hPa NW 5.1 km/h 33.6 km/h 39 % 0 mm
16:32 -0.7 °C -9.3 °C 34418.7 hPa NNE 31.1 km/h 33.6 km/h 39 % 0 mm
16:37 -0.9 °C -9.5 °C 34405.1 hPa East 18.2 km/h 36.2 km/h 39 % 0 mm
16:42 -0.7 °C -9.3 °C 34405.1 hPa NNE 10.3 km/h 36.2 km/h 39 % 0 mm
16:47 -0.7 °C -9.3 °C 34405.1 hPa ENE 2.6 km/h 36.2 km/h 39 % 0 mm
16:52 -0.6 °C -9.4 °C 34405.1 hPa North 23.3 km/h 31.1 km/h 38 % 0 mm
16:57 -0.7 °C -9.3 °C 34405.1 hPa NE 15.6 km/h 36.2 km/h 39 % 0 mm
17:12 -0.8 °C -9.4 °C 34405.1 hPa North 10.3 km/h 31.1 km/h 39 % 0 mm
17:17 -1 °C -9.4 °C 34405.1 hPa North 10.3 km/h 31.1 km/h 40 % 0 mm
17:22 -1.1 °C -9.4 °C 34405.1 hPa North 15.6 km/h 31.1 km/h 40 % 0 mm
17:27 -0.9 °C -9.5 °C 34405.1 hPa NNE 15.6 km/h 31.1 km/h 39 % 0 mm
17:32 -0.9 °C -9.3 °C 34405.1 hPa NE 10.3 km/h 33.6 km/h 40 % 0 mm
17:37 -0.8 °C -9.4 °C 34395 hPa NW 12.9 km/h 33.6 km/h 39 % 0 mm
17:42 -0.8 °C -9.4 °C 34395 hPa NNW 5.1 km/h 33.6 km/h 39 % 0 mm
17:47 -0.8 °C -9.4 °C 34395 hPa North 7.7 km/h 25.9 km/h 39 % 0 mm
17:52 -0.7 °C -9.3 °C 34395 hPa NE 23.3 km/h 31.1 km/h 39 % 0 mm
17:57 -0.8 °C -9.4 °C 34395 hPa NE 7.7 km/h 31.1 km/h 39 % 0 mm
18:02 -0.7 °C -9.3 °C 34395 hPa ENE 7.7 km/h 31.1 km/h 39 % 0 mm
18:12 -0.8 °C -9.4 °C 34395 hPa NNW 5.1 km/h 38.8 km/h 39 % 0 mm
18:22 -0.9 °C -9.6 °C 34384.8 hPa NE 12.9 km/h 38.8 km/h 39 % 0 mm
18:32 -0.9 °C -9.6 °C 34384.8 hPa NE 20.8 km/h 33.6 km/h 39 % 0 mm
18:42 -1 °C -9.4 °C 34384.8 hPa NW 15.6 km/h 33.6 km/h 40 % 0 mm
18:52 -1.2 °C -9.6 °C 34384.8 hPa NNW 12.9 km/h 36.2 km/h 40 % 0 mm
18:57 -1.1 °C -9.5 °C 34384.8 hPa North 20.8 km/h 36.2 km/h 40 % 0 mm
19:02 -1.1 °C -9.4 °C 34384.8 hPa NNE 10.3 km/h 36.2 km/h 40 % 0 mm
19:12 -1.2 °C -9.6 °C 34384.8 hPa NNW 5.1 km/h 38.8 km/h 40 % 0 mm
19:17 -1.2 °C -9.6 °C 34384.8 hPa North 20.8 km/h 38.8 km/h 40 % 0 mm
19:22 -1.3 °C -9.4 °C 34384.8 hPa NNE 5.1 km/h 38.8 km/h 41 % 0 mm
19:32 -1.4 °C -9.5 °C 34384.8 hPa NNW 10.3 km/h 38.8 km/h 41 % 0 mm
19:37 -1.4 °C -9.6 °C 34384.8 hPa NNW 18.2 km/h 38.8 km/h 41 % 0 mm
19:42 -1.5 °C -9.6 °C 34371.3 hPa ENE 12.9 km/h 38.8 km/h 41 % 0 mm
19:47 -1.6 °C -9.7 °C 34384.8 hPa NNW 10.3 km/h 33.6 km/h 41 % 0 mm
19:52 -1.6 °C -9.4 °C 34371.3 hPa NE 25.9 km/h 33.6 km/h 42 % 0 mm
19:57 -1.6 °C -9.5 °C 34384.8 hPa ENE 10.3 km/h 31.1 km/h 42 % 0 mm
20:02 -1.7 °C -9.6 °C 34384.8 hPa NE 12.9 km/h 31.1 km/h 42 % 0 mm
20:12 -1.8 °C -9.5 °C 34371.3 hPa NE 15.6 km/h 31.1 km/h 43 % 0 mm
20:17 -1.9 °C -9.6 °C 34384.8 hPa NE 7.7 km/h 31.1 km/h 43 % 0 mm
20:22 -2 °C -9.4 °C 34384.8 hPa NNW 7.7 km/h 25.9 km/h 44 % 0 mm
20:27 -2.1 °C -9.6 °C 34384.8 hPa ENE 5.1 km/h 25.9 km/h 44 % 0 mm
20:32 -2.2 °C -9.7 °C 34384.8 hPa NE 7.7 km/h 23.3 km/h 44 % 0 mm
20:37 -2.3 °C -9.6 °C 34384.8 hPa NE 2.6 km/h 23.3 km/h 45 % 0 mm
20:42 -2.4 °C -9.7 °C 34384.8 hPa NNE 7.7 km/h 23.3 km/h 45 % 0 mm
20:47 -2.6 °C -9.6 °C 34384.8 hPa NW 5.1 km/h 23.3 km/h 46 % 0 mm
20:52 -2.7 °C -9.7 °C 34384.8 hPa NNE 10.3 km/h 12.9 km/h 46 % 0 mm
20:57 -2.8 °C -9.7 °C 34384.8 hPa North 5.1 km/h 18.2 km/h 47 % 0 mm
21:02 -2.9 °C -9.7 °C 34384.8 hPa NE 10.3 km/h 18.2 km/h 47 % 0 mm
21:07 -3.1 °C -9.7 °C 34384.8 hPa NW 7.7 km/h 18.2 km/h 48 % 0 mm
21:12 -3.2 °C -9.8 °C 34395 hPa NE 12.9 km/h 18.2 km/h 48 % 0 mm
21:17 -3.2 °C -9.8 °C 34395 hPa NE 5.1 km/h 18.2 km/h 48 % 0 mm
21:22 -3.3 °C -9.9 °C 34395 hPa NE 7.7 km/h 18.2 km/h 48 % 0 mm
21:27 -3.4 °C -9.8 °C 34395 hPa NNE 7.7 km/h 12.9 km/h 49 % 0 mm
21:32 -3.4 °C -9.8 °C 34395 hPa NNE 7.7 km/h 15.6 km/h 49 % 0 mm
21:37 -3.5 °C -9.9 °C 34405.1 hPa NE 10.3 km/h 20.8 km/h 49 % 0 mm
21:42 -3.5 °C -9.9 °C 34405.1 hPa North 10.3 km/h 20.8 km/h 49 % 0 mm
21:47 -3.6 °C -9.8 °C 34405.1 hPa NNW 10.3 km/h 20.8 km/h 50 % 0 mm
21:52 -3.7 °C -9.9 °C 34405.1 hPa NE 10.3 km/h 18.2 km/h 50 % 0 mm
21:57 -3.7 °C -9.9 °C 34395 hPa NNE 10.3 km/h 18.2 km/h 50 % 0 mm
22:02 -3.8 °C -9.8 °C 34405.1 hPa NW 7.7 km/h 18.2 km/h 51 % 0 mm
22:07 -3.8 °C -9.8 °C 34405.1 hPa NE 7.7 km/h 23.3 km/h 51 % 0 mm
22:12 -3.9 °C -9.9 °C 34395 hPa NNE 5.1 km/h 23.3 km/h 51 % 0 mm
22:17 -4 °C -10 °C 34395 hPa North 5.1 km/h 23.3 km/h 51 % 0 mm
22:22 -4.1 °C -10.1 °C 34395 hPa NNE 12.9 km/h 20.8 km/h 51 % 0 mm
22:27 -4.1 °C -9.9 °C 34395 hPa NW 2.6 km/h 20.8 km/h 52 % 0 mm
22:37 -4.2 °C -10.1 °C 34395 hPa NE 12.9 km/h 20.8 km/h 52 % 0 mm
22:42 -4.3 °C -10.1 °C 34405.1 hPa North 12.9 km/h 20.8 km/h 52 % 0 mm
22:47 -4.3 °C -9.9 °C 34405.1 hPa NW 5.1 km/h 28.5 km/h 53 % 0 mm
22:52 -4.4 °C -10.1 °C 34405.1 hPa NNE 10.3 km/h 28.5 km/h 53 % 0 mm
22:57 -4.5 °C -10.2 °C 34405.1 hPa NE 5.1 km/h 28.5 km/h 53 % 0 mm
23:02 -4.5 °C -10.2 °C 34405.1 hPa NNW 2.6 km/h 20.8 km/h 53 % 0 mm
23:07 -4.6 °C -10.1 °C 34405.1 hPa NNE 12.9 km/h 20.8 km/h 54 % 0 mm
23:12 -4.6 °C -10.1 °C 34405.1 hPa ENE 7.7 km/h 20.8 km/h 54 % 0 mm
23:17 -4.6 °C -10.1 °C 34405.1 hPa NE 7.7 km/h 20.8 km/h 54 % 0 mm
23:22 -4.7 °C -10.2 °C 34405.1 hPa North 7.7 km/h 20.8 km/h 54 % 0 mm
23:32 -4.7 °C -10 °C 34418.7 hPa NNE 10.3 km/h 18.2 km/h 55 % 0 mm
23:37 -4.7 °C -10.1 °C 34418.7 hPa Calm   15.6 km/h 55 % 0 mm
23:42 -4.8 °C -10.1 °C 34418.7 hPa NNW 5.1 km/h 12.9 km/h 55 % 0 mm
23:47 -4.8 °C -10.1 °C 34418.7 hPa North 7.7 km/h 12.9 km/h 55 % 0 mm
23:52 -4.8 °C -10.1 °C 34418.7 hPa NNW 7.7 km/h 12.9 km/h 55 % 0 mm
23:57 -4.8 °C -10.1 °C 34405.1 hPa NNW 12.9 km/h 15.6 km/h 55 % 0 mm
Meteo18
Compliments of Weather Underground - 4 mb

Script developed by  Jim McMurry - jmcmurry@mwt.net Adapted for the template by  Wim van der Kuil - Leuven-Template.eu

You find our weather info also at:

European Weather Network

Weather Underground

Equipment we use:

Weather-station
Davis Vue

Weather-program
Meteobridge

Weather-server
Raspberry PI 2 B+

Provider
1 and 1

Davis Vue

Meteobridge

Raspberry PI 2 B+

1 and 1